Retour au catalogue

ONEWEB-0319

ActifCommunicationsPO
NORAD 49105·PAYLOAD·🇬🇧 United Kingdom

Lancé Aug 21, 2021 depuis Baikonur Cosmodrome

Loading…

Prochains Passages (prochaines 24 heures)

TLE

FraisSource: CelesTrak SupGP

Époque: Sep 14, 2026, 22:29 UTC

1 49105C 21075AG  26257.93730741 -.00000843  00000+0 -21734-2 0  2572
2 49105  87.9206 348.0442 0002278 111.9510 283.0331 13.17652803    12

Suivez ONEWEB-0319 en temps réel avec AllMySat

Download on the App Store